When you browse on this site, cookies collect data to enhance your experience and personalize the content and advertising you see.
Visit our Privacy Policy to learn more. By continuing to use the site, you agree to this use of cookies and data.
  • In Hungary
  • List of Countries
  • For 7 days
  • Water Temperature
  • Weather Map
  • News
  • Weather Widgets
  • user-avatar
    Login

    Hourly Weather Kyustendil

    Today, 22 November, Friday

    Time Temperature Precipitation Wind Pressure Humidity
    00:00 +9°C° 0 mm 1 mps 694 mmHg 92%
    01:00 +9°C° 0 mm 1 mps 694 mmHg 93%
    02:00 +9°C° 0 mm 1 mps 694 mmHg 92%
    03:00 +9°C° 0.3 mm 1 mps 694 mmHg 93%
    04:00 +9°C° 0.3 mm 1 mps 694 mmHg 94%
    05:00 +9°C° 0.3 mm 1 mps 694 mmHg 95%
    06:00 +9°C° 1.5 mm 1 mps 694 mmHg 95%
    07:00 +9°C° 1.5 mm 1 mps 695 mmHg 96%
    08:00 +9°C° 1.5 mm 1 mps 695 mmHg 97%
    09:00 +9°C° 1.6 mm 1 mps 695 mmHg 95%
    10:00 +8°C° 1.6 mm 2 mps 696 mmHg 94%
    11:00 +8°C° 1.6 mm 2 mps 696 mmHg 93%
    12:00 +8°C° 0.4 mm 2 mps 696 mmHg 92%
    13:00 +8°C° 0.4 mm 2 mps 696 mmHg 91%
    14:00 +9°C° 0.4 mm 1 mps 696 mmHg 90%
    15:00 +9°C° 0.1 mm 1 mps 696 mmHg 91%
    16:00 +8°C° 0.1 mm 1 mps 696 mmHg 91%
    17:00 +8°C° 0.1 mm 1 mps 696 mmHg 92%
    18:00 +8°C° 0 mm 1 mps 696 mmHg 92%
    19:00 +8°C° 0 mm 1 mps 697 mmHg 92%
    20:00 +8°C° 0 mm 1 mps 697 mmHg 92%
    21:00 +7°C° 0 mm 1 mps 697 mmHg 93%
    22:00 +7°C° 0 mm 1 mps 697 mmHg 93%
    23:00 +7°C° 0 mm 1 mps 698 mmHg 93%

    Tomorrow, 23 November, Saturday

    Time Temperature Precipitation Wind Pressure Humidity
    00:00 +7°C° 0 mm 1 mps 698 mmHg 93%
    01:00 +7°C° 0 mm 1 mps 698 mmHg 93%
    02:00 +7°C° 0 mm 1 mps 698 mmHg 93%
    03:00 +7°C° 0 mm 1 mps 697 mmHg 93%
    04:00 +7°C° 0 mm 1 mps 697 mmHg 93%
    05:00 +7°C° 0 mm 1 mps 697 mmHg 93%
    06:00 +7°C° 0 mm 1 mps 697 mmHg 93%
    07:00 +7°C° 0 mm 1 mps 697 mmHg 92%
    08:00 +7°C° 0 mm 1 mps 698 mmHg 92%
    09:00 +8°C° 0 mm 1 mps 698 mmHg 88%
    10:00 +9°C° 0 mm 1 mps 698 mmHg 84%
    11:00 +10°C° 0 mm 1 mps 698 mmHg 79%
    12:00 +10°C° 0 mm 1 mps 698 mmHg 77%
    13:00 +11°C° 0 mm 1 mps 697 mmHg 74%
    14:00 +11°C° 0 mm 1 mps 697 mmHg 72%
    15:00 +10°C° 0 mm 1 mps 697 mmHg 77%
    16:00 +10°C° 0 mm 1 mps 697 mmHg 81%
    17:00 +9°C° 0 mm 1 mps 696 mmHg 86%
    18:00 +8°C° 0 mm 1 mps 697 mmHg 87%
    19:00 +8°C° 0 mm 1 mps 697 mmHg 89%
    20:00 +7°C° 0 mm 1 mps 697 mmHg 91%
    21:00 +7°C° 0 mm 1 mps 697 mmHg 91%
    22:00 +7°C° 0 mm 1 mps 697 mmHg 92%
    23:00 +6°C° 0 mm 1 mps 697 mmHg 92%

    Day after tomorrow, 24 November, Sunday

    Time Temperature Precipitation Wind Pressure Humidity
    00:00 +6°C° 0 mm 1 mps 697 mmHg 93%
    01:00 +6°C° 0 mm 1 mps 697 mmHg 93%
    02:00 +6°C° 0 mm 1 mps 697 mmHg 93%
    03:00 +6°C° 0 mm 1 mps 697 mmHg 93%
    04:00 +6°C° 0 mm 1 mps 696 mmHg 93%
    05:00 +6°C° 0 mm 1 mps 696 mmHg 93%
    06:00 +6°C° 0 mm 1 mps 696 mmHg 92%
    07:00 +6°C° 0 mm 1 mps 696 mmHg 92%
    08:00 +6°C° 0 mm 1 mps 697 mmHg 92%
    09:00 +7°C° 0 mm 1 mps 697 mmHg 87%
    10:00 +9°C° 0 mm 1 mps 697 mmHg 82%
    11:00 +10°C° 0 mm 1 mps 697 mmHg 77%
    12:00 +11°C° 0 mm 1 mps 697 mmHg 75%
    13:00 +11°C° 0 mm 1 mps 696 mmHg 73%
    14:00 +12°C° 0 mm 2 mps 696 mmHg 70%
    15:00 +10°C° 0 mm 2 mps 696 mmHg 75%
    16:00 +10°C° 0 mm 1 mps 695 mmHg 79%
    17:00 +9°C° 0 mm 1 mps 695 mmHg 84%
    18:00 +9°C° 0 mm 1 mps 695 mmHg 86%
    19:00 +8°C° 0 mm 1 mps 695 mmHg 88%
    20:00 +7°C° 0 mm 1 mps 694 mmHg 90%
    21:00 +7°C° 0 mm 1 mps 694 mmHg 90%
    22:00 +7°C° 0 mm 1 mps 694 mmHg 91%
    23:00 +6°C° 0 mm 1 mps 694 mmHg 91%

    25 November, Monday

    Time Temperature Precipitation Wind Pressure Humidity
    00:00 +6°C° 0 mm 1 mps 694 mmHg 92%
    01:00 +6°C° 0 mm 1 mps 693 mmHg 92%
    02:00 +6°C° 0 mm 1 mps 693 mmHg 92%
    03:00 +6°C° 0 mm 1 mps 693 mmHg 93%
    04:00 +6°C° 0 mm 1 mps 692 mmHg 93%
    05:00 +6°C° 0 mm 1 mps 692 mmHg 93%
    06:00 +6°C° 0 mm 1 mps 692 mmHg 93%
    07:00 +5°C° 0 mm 2 mps 692 mmHg 93%
    08:00 +5°C° 0 mm 2 mps 692 mmHg 93%
    09:00 +7°C° 0 mm 2 mps 692 mmHg 88%
    10:00 +8°C° 0 mm 2 mps 692 mmHg 84%
    11:00 +9°C° 0 mm 2 mps 692 mmHg 79%
    12:00 +9°C° 0 mm 2 mps 692 mmHg 78%
    13:00 +10°C° 0 mm 2 mps 692 mmHg 76%
    14:00 +10°C° 0 mm 2 mps 692 mmHg 75%
    15:00 +9°C° 0 mm 2 mps 692 mmHg 78%
    16:00 +9°C° 0 mm 2 mps 691 mmHg 81%
    17:00 +8°C° 0 mm 2 mps 691 mmHg 85%
    18:00 +8°C° 0 mm 2 mps 691 mmHg 87%
    19:00 +8°C° 0 mm 2 mps 692 mmHg 88%
    20:00 +7°C° 0 mm 2 mps 692 mmHg 90%
    21:00 +7°C° 0 mm 2 mps 692 mmHg 90%
    22:00 +8°C° 0 mm 1 mps 692 mmHg 90%
    23:00 +8°C° 0 mm 1 mps 692 mmHg 90%

    26 November, Tuesday

    Time Temperature Precipitation Wind Pressure Humidity
    00:00 +8°C° 0 mm 1 mps 692 mmHg 90%
    01:00 +8°C° 0 mm 1 mps 692 mmHg 90%
    02:00 +8°C° 0 mm 1 mps 692 mmHg 90%
    03:00 +8°C° 0 mm 1 mps 692 mmHg 91%
    04:00 +7°C° 0 mm 1 mps 692 mmHg 92%
    05:00 +7°C° 0 mm 1 mps 692 mmHg 93%
    06:00 +7°C° 0 mm 1 mps 692 mmHg 93%
    07:00 +7°C° 0 mm 1 mps 692 mmHg 93%
    08:00 +6°C° 0 mm 1 mps 692 mmHg 94%
    09:00 +8°C° 0 mm 1 mps 693 mmHg 87%
    10:00 +9°C° 0 mm 1 mps 693 mmHg 81%
    11:00 +11°C° 0 mm 1 mps 693 mmHg 74%
    12:00 +11°C° 0 mm 1 mps 693 mmHg 71%
    13:00 +12°C° 0 mm 1 mps 693 mmHg 67%
    14:00 +13°C° 0 mm 1 mps 693 mmHg 63%
    15:00 +11°C° 0 mm 0 mps 693 mmHg 69%
    16:00 +9°C° 0 mm 0 mps 692 mmHg 75%
    17:00 +8°C° 0 mm 0 mps 692 mmHg 80%
    18:00 +8°C° 0 mm 0 mps 693 mmHg 82%
    19:00 +7°C° 0 mm 0 mps 693 mmHg 83%
    20:00 +7°C° 0 mm 0 mps 693 mmHg 85%
    21:00 +7°C° 0 mm 0 mps 693 mmHg 85%
    22:00 +8°C° 0 mm 1 mps 693 mmHg 85%
    23:00 +8°C° 0 mm 1 mps 693 mmHg 86%

    27 November, Wednesday

    Time Temperature Precipitation Wind Pressure Humidity
    00:00 +8°C° 0 mm 1 mps 693 mmHg 86%
    01:00 +7°C° 0 mm 1 mps 693 mmHg 87%
    02:00 +7°C° 0 mm 1 mps 693 mmHg 87%
    03:00 +7°C° 0 mm 1 mps 693 mmHg 88%
    04:00 +7°C° 0 mm 1 mps 693 mmHg 89%
    05:00 +7°C° 0 mm 1 mps 693 mmHg 90%
    06:00 +7°C° 0 mm 1 mps 693 mmHg 90%
    07:00 +7°C° 0 mm 1 mps 693 mmHg 91%
    08:00 +7°C° 0 mm 1 mps 694 mmHg 92%
    09:00 +8°C° 0 mm 1 mps 694 mmHg 86%
    10:00 +10°C° 0 mm 1 mps 694 mmHg 80%
    11:00 +12°C° 0 mm 1 mps 694 mmHg 74%
    12:00 +13°C° 0 mm 2 mps 694 mmHg 71%
    13:00 +13°C° 0 mm 2 mps 694 mmHg 68%
    14:00 +14°C° 0 mm 2 mps 694 mmHg 65%
    15:00 +13°C° 0 mm 2 mps 693 mmHg 70%
    16:00 +10°C° 0 mm 2 mps 693 mmHg 76%
    17:00 +9°C° 0 mm 2 mps 693 mmHg 82%
    18:00 +9°C° 0 mm 2 mps 693 mmHg 85%
    19:00 +9°C° 0 mm 1 mps 693 mmHg 88%
    20:00 +8°C° 0 mm 1 mps 693 mmHg 90%
    21:00 +8°C° 0 mm 1 mps 693 mmHg 91%
    22:00 +8°C° 0 mm 1 mps 693 mmHg 91%
    23:00 +8°C° 0 mm 1 mps 693 mmHg 92%
    Show more